Date String (YYYY-MM-DD hh:mm:ss) UTC,Instrument flags,Ambient pressure (hPa),Sample flow (lpm),Bypass flow (lpm),Sample temperature (°C),Ambient temperature (°C),ASC tube jacket temperature (°C),LED temperature (°C),Box temperature (°C),Sample RH (%),Span deviation,Mass concentration (μg/m³),Mass concentration (μg/m³),Mass concentration (μg/m³)
DateTimeUTC,F1_M11,P_M11,Q1_M11,Q2_M11,T1_M11,T2_M11,T3_M11,T4_M11,T5_M11,U1_M11,ZSPAN_M11,X0_M11,X2_M11,X1_M11
2022-11-07 03:00:00,,0827.7,5.00,0.00,23.0,21.7,00.0,31.7,24.9,11.9,0000.0,0008.74,0003.00,0001.82
2022-11-07 03:01:00,,0827.7,5.00,0.00,23.0,21.7,00.0,31.7,24.9,11.5,0000.0,0009.28,0002.98,0001.81
2022-11-07 03:02:00,,0827.7,5.00,0.00,23.0,21.7,00.0,31.7,24.9,11.6,0000.0,0009.00,0002.90,0001.80
2022-11-07 03:03:00,,0827.7,5.01,0.00,23.0,21.7,00.0,31.7,24.9,11.8,0000.0,0009.66,0002.93,0001.82
2022-11-07 03:04:00,,0827.7,5.00,0.00,23.0,21.7,00.0,31.8,24.9,11.9,0000.0,0009.89,0002.95,0001.83
2022-11-07 03:05:00,,0827.7,4.99,0.00,23.0,21.7,00.0,31.8,24.9,11.9,0000.0,0009.84,0002.99,0001.85
2022-11-07 03:06:00,,0827.7,4.99,0.00,23.0,21.7,00.0,31.7,24.9,11.9,0000.0,0010.03,0003.00,0001.87
2022-11-07 03:07:00,,0827.7,5.01,0.00,23.0,21.7,00.0,31.8,24.9,11.9,0000.0,0009.84,0002.97,0001.89
2022-11-07 03:08:00,,0827.7,5.01,0.00,23.0,21.7,00.0,31.7,24.9,11.5,0000.0,0008.54,0002.92,0001.90
2022-11-07 03:09:00,,0827.7,5.00,0.00,23.0,21.7,00.0,31.8,24.9,11.6,0000.0,0008.49,0002.90,0001.91
2022-11-07 03:10:00,,0827.7,4.99,0.00,23.0,21.7,00.0,31.7,24.9,11.6,0000.0,0008.52,0002.90,0001.92
2022-11-07 03:11:00,,0827.7,4.99,0.00,23.0,21.7,00.0,31.8,24.9,11.6,0000.0,0008.91,0002.92,0001.95
2022-11-07 03:12:00,,0827.7,5.01,0.00,23.0,21.7,00.0,31.8,24.9,11.8,0000.0,0008.24,0002.90,0001.97
2022-11-07 03:13:00,,0827.7,5.01,0.00,23.0,21.7,00.0,31.7,24.9,11.8,0000.0,0008.35,0002.97,0001.99
2022-11-07 03:14:00,,0827.7,5.00,0.00,23.0,21.7,00.0,31.8,24.9,11.8,0000.0,0007.66,0002.96,0002.01
2022-11-07 03:15:00,,0827.7,4.99,0.00,23.0,21.7,00.0,31.8,24.9,11.9,0000.0,0007.38,0002.92,0002.03
2022-11-07 03:16:00,,0827.7,5.00,0.00,23.0,21.7,00.0,31.8,24.9,11.9,0000.0,0007.28,0002.83,0002.04
2022-11-07 03:17:00,,0827.7,5.00,0.00,23.0,21.7,00.0,31.8,24.9,11.9,0000.0,0007.17,0002.85,0002.05
2022-11-07 03:18:00,,0827.7,5.02,0.00,23.0,21.7,00.0,31.8,24.9,11.9,0000.0,0007.78,0002.98,0002.09
2022-11-07 03:19:00,,0827.7,4.98,0.00,23.0,21.7,00.0,31.8,24.9,11.9,0000.0,0008.30,0003.07,0002.12
2022-11-07 03:20:00,,0827.7,5.00,0.00,23.0,21.7,00.0,31.8,24.9,11.9,0000.0,0009.00,0003.16,0002.15
2022-11-07 03:21:00,,0827.7,5.01,0.00,23.0,21.7,00.0,31.8,24.9,11.8,0000.0,0009.87,0003.18,0002.16
2022-11-07 03:22:00,,0827.7,4.99,0.00,23.0,21.7,00.0,31.7,24.9,11.8,0000.0,0009.50,0003.19,0002.17
2022-11-07 03:23:00,,0827.7,4.99,0.00,23.0,21.7,00.0,31.7,24.9,11.6,0000.0,0009.43,0003.23,0002.19
2022-11-07 03:24:00,,0827.7,5.00,0.00,23.0,21.7,00.0,31.8,24.9,11.4,0000.0,0009.43,0003.21,0002.19
2022-11-07 03:25:00,,0827.7,5.00,0.00,23.0,21.7,00.0,31.7,24.9,11.2,0000.0,0009.63,0003.18,0002.17
2022-11-07 03:26:00,,0827.7,5.00,0.00,23.0,21.7,00.0,31.8,24.9,11.1,0000.0,0009.85,0003.20,0002.16
2022-11-07 03:27:00,,0827.7,5.00,0.00,23.0,21.7,00.0,31.8,24.9,11.1,0000.0,0010.17,0003.21,0002.16
2022-11-07 03:28:00,,0827.7,5.00,0.00,23.0,21.7,00.0,31.7,24.9,11.1,0000.0,0010.13,0003.21,0002.15
2022-11-07 03:29:00,,0827.7,5.00,0.00,23.0,21.7,00.0,31.7,24.9,11.1,0000.0,0009.92,0003.21,0002.11
2022-11-07 03:30:00,,0827.7,5.01,0.00,23.0,21.7,00.0,31.7,24.9,11.1,0000.0,0009.57,0003.17,0002.08
2022-11-07 03:31:00,,0827.7,5.01,0.00,23.0,21.7,00.0,31.7,24.9,11.1,0000.0,0009.02,0003.14,0002.04
2022-11-07 03:32:00,,0827.7,5.00,0.00,23.0,21.7,00.0,31.8,24.9,11.1,0000.0,0007.85,0003.09,0002.03
2022-11-07 03:33:00,,0827.7,4.99,0.00,23.0,21.7,00.0,31.7,24.9,11.2,0000.0,0008.28,0003.05,0002.01
2022-11-07 03:34:00,,0827.7,5.00,0.00,23.0,21.7,00.0,31.7,24.9,11.2,0000.0,0008.38,0003.01,0001.99
2022-11-07 03:35:00,,0827.7,4.99,0.00,23.0,21.7,00.0,31.7,24.9,11.3,0000.0,0008.48,0003.09,0001.99
2022-11-07 03:36:00,,0827.7,5.00,0.00,23.0,21.7,00.0,31.8,24.9,11.4,0000.0,0008.23,0003.14,0002.01
2022-11-07 03:37:00,,0827.7,5.01,0.00,23.0,21.7,00.0,31.8,24.9,11.5,0000.0,0008.03,0003.14,0002.02
2022-11-07 03:38:00,,0827.7,5.00,0.00,23.0,21.7,00.0,31.8,24.9,11.4,0000.0,0007.67,0003.15,0002.03
2022-11-07 03:39:00,,0827.7,5.00,0.00,23.0,21.7,00.0,31.8,24.9,11.5,0000.0,0008.01,0003.17,0002.04
2022-11-07 03:40:00,,0827.7,5.00,0.00,23.0,21.7,00.0,31.8,24.9,11.5,0000.0,0009.09,0003.16,0002.06
2022-11-07 03:41:00,,0827.7,5.01,0.00,23.0,21.7,00.0,31.8,24.9,11.5,0000.0,0009.28,0003.16,0002.08
2022-11-07 03:42:00,,0827.7,5.00,0.00,23.0,21.7,00.0,31.8,24.9,11.5,0000.0,0009.36,0003.17,0002.10
2022-11-07 03:43:00,,0827.8,5.00,0.00,23.0,21.7,00.0,31.8,24.9,11.7,0000.0,0009.29,0003.13,0002.11
2022-11-07 03:44:00,,0827.7,5.00,0.00,23.0,21.7,00.0,31.8,24.9,11.6,0000.0,0009.00,0003.17,0002.13
2022-11-07 03:45:00,,0827.7,5.00,0.00,23.0,21.7,00.0,31.8,24.9,11.5,0000.0,0008.92,0003.21,0002.15
2022-11-07 03:46:00,,0827.7,5.00,0.00,23.0,21.7,00.0,31.8,24.9,11.5,0000.0,0008.92,0003.21,0002.15
2022-11-07 03:47:00,,0827.7,5.00,0.00,23.0,21.7,00.0,31.8,24.9,11.5,0000.0,0008.94,0003.18,0002.13
2022-11-07 03:48:00,,0827.7,4.99,0.00,23.0,21.7,00.0,31.8,24.9,11.5,0000.0,0009.03,0003.17,0002.13
2022-11-07 03:49:00,,0827.7,4.99,0.00,23.0,21.7,00.0,31.8,24.9,11.5,0000.0,0009.59,0003.21,0002.14
2022-11-07 03:50:00,,0827.7,5.00,0.00,23.0,21.7,00.0,31.8,24.9,11.5,0000.0,0010.45,0003.25,0002.12
2022-11-07 03:51:00,,0827.7,5.01,0.00,23.0,21.7,00.0,31.8,24.9,11.4,0000.0,0009.60,0003.32,0002.14
2022-11-07 03:52:00,,0827.7,5.00,0.00,23.0,21.7,00.0,31.8,24.9,11.6,0000.0,0010.33,0003.31,0002.13
2022-11-07 03:53:00,,0827.7,5.01,0.00,23.0,21.7,00.0,31.8,24.9,11.6,0000.0,0010.69,0003.32,0002.14
2022-11-07 03:54:00,,0827.7,5.00,0.00,23.0,21.7,00.0,31.8,24.9,11.5,0000.0,0011.11,0003.33,0002.14
2022-11-07 03:55:00,,0827.7,4.99,0.00,23.0,21.7,00.0,31.8,24.9,11.4,0000.0,0011.30,0003.31,0002.11
2022-11-07 03:56:00,,0827.7,4.99,0.00,23.0,21.7,00.0,31.8,24.9,11.6,0000.0,0011.42,0003.25,0002.09
2022-11-07 03:57:00,,0827.8,5.00,0.00,23.0,21.7,00.0,31.8,24.9,11.7,0000.0,0011.34,0003.24,0002.08
2022-11-07 03:58:00,,0827.8,5.01,0.00,23.0,21.7,00.0,31.8,24.9,11.7,0000.0,0011.43,0003.26,0002.10
2022-11-07 03:59:00,,0827.8,5.00,0.00,23.0,21.7,00.0,31.8,24.9,11.8,0000.0,0011.40,0003.28,0002.11
